Location: Poughquag
(41.6090°N, 73.6820°W)
Time: 09:34:42
(UTC-04:00)

Vanguard 1 - Visible Passes

Search period start: 14 October 2019 00:00
Search period end: 24 October 2019 00:00
Orbit: 653 x 3830 km, 34.3° (Epoch: 13 October)

Date Brightness Start Highest point End Pass type
(mag) Time Alt. Az. Time Alt. Az. Time Alt. Az.
14 Oct 13.4 02:07:59 33° SE 02:07:59 33° SE 02:18:03 10° SE visible
14 Oct 13.2 04:20:46 32° SW 04:20:46 32° SW 04:37:59 10° SSE visible
14 Oct 12.3 19:00:05 10° S 19:07:01 25° SE 19:15:26 14° E visible
14 Oct 11.9 21:16:45 10° SW 21:27:24 57° SSE 21:28:08 57° SSE visible
14 Oct 13.0 23:36:41 10° W 00:15:42 - ESE 23:40:50 27° WSW visible
15 Oct 13.4 02:28:29 32° SSE 02:28:29 32° SSE 02:38:40 10° SE visible
15 Oct 13.4 04:41:15 25° SW 04:41:15 25° SW 04:56:48 10° S visible
15 Oct 12.1 19:19:47 10° SSW 19:27:21 32° SE 19:35:05 19° E visible
15 Oct 11.9 21:37:27 10° WSW 21:47:47 62° S 21:47:47 62° S visible
15 Oct 13.2 23:57:43 10° W 00:36:09 - ESE 00:00:28 20° W visible
16 Oct 13.5 02:48:55 30° SSE 02:48:55 30° SSE 02:58:59 10° SSE visible
16 Oct 13.6 05:01:41 19° SW 05:01:41 19° SW 05:14:33 10° SSW visible
16 Oct 11.9 19:39:52 10° SSW 19:47:50 40° SSE 19:54:42 25° E visible
16 Oct 11.9 21:58:13 10° WSW 22:07:23 60° SSW 22:07:23 60° SSW visible
17 Oct 13.4 00:18:47 10° W 00:56:32 10° ESE 00:56:38 10° ESE visible
17 Oct 13.5 03:09:18 27° S 03:09:18 27° S 03:18:53 10° SSE visible
17 Oct 13.8 05:22:04 13° SW 05:22:04 13° SW 05:29:49 10° SSW visible
17 Oct 11.7 20:00:11 10° SW 20:08:31 47° SSE 20:14:16 33° ESE visible
17 Oct 12.1 22:19:05 10° WSW 22:26:57 53° SW 22:26:57 53° SW visible
18 Oct 13.6 01:16:51 11° SE 01:16:51 11° SE 01:17:34 10° SE visible
18 Oct 13.6 03:29:36 24° S 03:29:36 24° S 03:38:16 10° SSE visible
18 Oct 11.6 20:20:42 10° SW 20:29:20 54° SSE 20:33:49 41° ESE visible
18 Oct 12.4 22:40:01 10° W 22:46:30 43° WSW 22:46:30 43° WSW visible
19 Oct 13.8 01:37:05 12° SE 01:37:05 12° SE 01:38:13 10° SE visible
19 Oct 13.7 03:49:49 19° SSW 03:49:49 19° SSW 03:56:58 10° S visible
19 Oct 11.9 18:24:04 10° SSW 18:30:01 27° SE 18:39:19 10° E visible
19 Oct 11.6 20:41:21 10° WSW 20:50:16 59° SSE 20:53:21 50° SE visible
19 Oct 12.6 23:00:58 10° W 23:06:02 34° WSW 23:06:02 34° WSW visible
20 Oct 14.1 01:57:13 12° SSE 01:57:13 12° SSE 01:58:31 10° SSE visible
20 Oct 13.9 04:09:58 14° SSW 04:09:58 14° SSW 04:14:29 10° SSW visible
20 Oct 11.7 18:44:06 10° SSW 18:50:30 35° SSE 19:00:12 12° E visible
20 Oct 11.6 21:02:05 10° WSW 21:11:18 62° S 21:12:53 59° SE visible
20 Oct 12.9 23:21:58 10° W 23:25:35 25° W 23:25:35 25° W visible
21 Oct 14.1 02:17:17 12° SSE 02:17:17 12° SSE 02:18:23 10° SSE visible
21 Oct 11.5 19:04:24 10° SW 19:11:07 42° SSE 19:19:44 17° E visible
21 Oct 11.6 21:22:54 10° WSW 21:32:25 63° S 21:32:25 63° S visible
21 Oct 13.2 23:43:02 10° W 23:45:06 18° W 23:45:06 18° W visible
22 Oct 14.1 02:37:14 11° SSE 02:37:14 11° SSE 02:37:41 10° SSE visible
22 Oct 11.4 19:24:55 10° SW 19:31:53 49° SSE 19:39:15 24° E visible
22 Oct 11.8 21:43:46 10° W 21:51:56 58° SSW 21:51:56 58° SSW visible
23 Oct 13.4 00:04:13 10° W 00:04:38 11° W 00:04:38 11° W visible
23 Oct 11.3 19:45:32 10° WSW 19:52:45 55° SSE 19:58:47 31° ESE visible
23 Oct 12.0 22:04:41 10° W 22:11:29 48° SW 22:11:29 48° SW visible
